Flag for Canada Weather past 2 weeks in Kitchener, Ontario, Canada

Now
70 °F

Fog.


Feels Like: 70 °F
Forecast: 63 / 78 °F
Wind: 12 mph from South

Location: Waterloo Well

Current Time: Jul 13, 2014 at 8:07:51 AM

Latest Report: Jul 13, 2014 at 7:00 AM


Visibility: 3 mi

Pressure: 29.78 "Hg

Humidity: 94%

Dew point: 68 °F

Location of KitchenerLocation

Historic Weather in Kitchener — Graph

°F

Kitchener temperature yesterday

Maximum temperature yesterday: 81 °F (at 1:00 PM)
Minimum temperature yesterday: 54 °F (at 6:00 AM)
Average temperature yesterday: 69 °F

Past Weeks' High & Low Weather Summary

 TemperatureHumidityPressure
High88 °F (Jun 28, 4:00 PM)100% (Jun 29, 1:00 AM)30.27 "Hg (Jun 29, 1:00 AM)
Low46 °F (Jul 4, 3:00 AM)37% (Jul 11, 4:00 PM)29.53 "Hg (Jul 8, 3:00 PM)
Average68 °F75%29.95 "Hg
* Reported Jun 28 6:00 AM — Jul 13 6:00 AM, Kitchener, Weather by CustomWeather, © 2014

Note: Actual official high and low records may vary slightly from our data, if they occured in-between our weather recording intervals... More about our weather records

Advertising

Kitchener weather history for previous 24 hours

 ConditionsComfort  
Time TempWeatherWind HumidityBarometerVisibility
6:00 AM
Jul 13
70 °FRain. Fog.13 mph94%29.79 "Hg4 mi
5:53 AM70 °FLight rain. Fog.10 mph94%29.79 "Hg4 mi
5:00 AM70 °FFog.12 mph88%29.79 "Hg4 mi
4:00 AM68 °FLight rain. Fog.10 mph94%29.83 "Hg5 mi
3:00 AM68 °FLight rain. Overcast.7 mph88%29.86 "Hg9 mi
2:00 AM68 °FLight rain. Overcast.3 mph88%29.90 "Hg9 mi
1:50 AM68 °FRain. Fog.5 mph83%29.90 "Hg6 mi
1:00 AM72 °FOvercast.6 mph69%29.92 "Hg9 mi
12:00 AM72 °FMostly cloudy.9 mph73%29.95 "Hg9 mi
11:00 PM
Jul 12
72 °FMostly cloudy.7 mph69%29.97 "Hg9 mi
10:00 PM72 °FPartly sunny.7 mph69%29.99 "Hg9 mi
9:00 PM73 °FSunny.7 mph65%30.00 "Hg9 mi
8:00 PM75 °FSunny.5 mph61%30.02 "Hg9 mi
7:00 PM77 °FSunny.9 mph57%30.05 "Hg9 mi
6:00 PM79 °FPassing clouds.9 mph51%30.06 "Hg9 mi
5:00 PM79 °FPassing clouds.12 mph51%30.07 "Hg9 mi
4:00 PM79 °FPartly sunny.13 mph54%30.09 "Hg9 mi
3:00 PM81 °FPartly sunny.13 mph48%30.10 "Hg9 mi
2:00 PM81 °FPassing clouds.8 mph48%30.11 "Hg9 mi
1:00 PM81 °FSunny.13 mph48%30.12 "Hg9 mi
12:00 PM77 °FPassing clouds.12 mph54%30.14 "Hg9 mi
11:00 AM77 °FScattered clouds.12 mph54%30.15 "Hg9 mi
10:00 AM75 °FSunny.7 mph57%30.16 "Hg9 mi
9:00 AM70 °FSunny.2 mph69%30.15 "Hg9 mi
8:00 AM64 °FFog.No wind83%30.16 "Hg6 mi
Weather by CustomWeather, © 2014

See weather overviewHow to use our weather pages